Home > Weather > Albuquerque > Past weeks

Flag for USA Past Weather in Albuquerque, New Mexico, USA — Yesterday and Last 2 Weeks

Now
91 °F

Scattered clouds.


Feels Like: 88 °F
Forecast: 67 / 96 °F
Wind: 22 mph from Southeast

Location: Albuquerque International Airport

Current Time: Jul 27, 2016 at 6:57:53 PM

Latest Report: Jul 27, 2016 at 5:52 PM


Visibility: 10 mi

Pressure: 29.82 "Hg (25.19 "Hg at 1510m altitude)

Humidity: 24%

Dew Point: 49 °F

Location of AlbuquerqueLocation

Past Weather in Albuquerque — Graph

°F

Albuquerque Temperature Yesterday

Maximum temperature yesterday: 92 °F (at 4:52 PM)
Minimum temperature yesterday: 71 °F (at 5:52 AM)
Average temperature yesterday: 80 °F

High & Low Weather Summary for the Past Weeks

 TemperatureHumidityPressure
High100 °F (Jul 14, 3:52 PM)76% (Jul 20, 4:52 AM)30.29 "Hg (Jul 20, 4:52 AM)
Low63 °F (Jul 14, 5:52 AM)3% (Jul 14, 4:52 PM)29.70 "Hg (Jul 23, 6:52 PM)
Average83 °F30%29.90 "Hg
* Reported Jul 12 4:52 PM — Jul 27 4:52 PM, Albuquerque, Weather by CustomWeather, © 2016

Note: Actual official high and low records may vary slightly from our data, if they occured in-between our weather recording intervals... More about our weather records

Advertising

Albuquerque Weather History for the Previous 24 Hours

Scroll right to see more
 ConditionsComfort  
Time TempWeatherWind HumidityBarometerVisibility
4:52 PM
Wed, Jul 27
92 °FScattered clouds.13 mph26%29.82 "Hg10 mi
3:52 PM93 °FScattered clouds.6 mph23%29.83 "Hg10 mi
2:52 PM90 °FScattered clouds.6 mph25%29.87 "Hg10 mi
1:52 PM88 °FPassing clouds.3 mph30%29.88 "Hg10 mi
12:52 PM86 °FPassing clouds.No wind36%29.93 "Hg10 mi
11:52 AM84 °FPassing clouds.3 mph38%29.95 "Hg10 mi
10:52 AM81 °FPassing clouds.7 mph44%29.97 "Hg10 mi
9:52 AM79 °FPassing clouds.3 mph48%29.98 "Hg10 mi
8:52 AM76 °FPassing clouds.6 mph56%29.98 "Hg10 mi
7:52 AM74 °FPassing clouds.No wind62%29.96 "Hg10 mi
6:52 AM71 °FPassing clouds.3 mph68%29.96 "Hg10 mi
5:52 AM69 °FPassing clouds.No wind73%29.93 "Hg10 mi
4:52 AM69 °FPassing clouds.7 mph73%29.92 "Hg10 mi
3:52 AM70 °FPassing clouds.8 mph68%29.92 "Hg10 mi
2:52 AM72 °FPassing clouds.5 mph64%29.92 "Hg10 mi
1:52 AM74 °FPassing clouds.5 mph53%29.91 "Hg10 mi
12:52 AM75 °FPartly cloudy.9 mph55%29.93 "Hg10 mi
11:52 PM
Tue, Jul 26
78 °FPartly cloudy.9 mph43%29.93 "Hg10 mi
10:52 PM78 °FPartly cloudy.13 mph45%29.94 "Hg10 mi
9:52 PM78 °FPassing clouds.13 mph46%29.92 "Hg10 mi
8:52 PM81 °FPartly sunny.23 mph39%29.89 "Hg10 mi
7:52 PM87 °FPartly sunny.16 mph28%29.83 "Hg10 mi
6:52 PM90 °FBroken clouds.16 mph24%29.80 "Hg10 mi
Weather by CustomWeather, © 2016

See weather overviewHow to use our weather pages